| time (UTC) | temp C | wind direction | speed KPH | gust KPH | rain 1hr cm | rain 24hr cm | rain mn cm | humidity % | barometer mb |
| 20260508012512 | 12 | 287 | 1.6 | 3.2 | 0.00 | 0.00 | 0.00 | 48 | 1013.6 |
| 20260508012012 | 12 | 287 | 0.0 | 3.2 | 0.00 | 0.00 | 0.00 | 47 | 1013.6 |
| 20260508011504 | 12 | 287 | 0.0 | 3.2 | 0.00 | 0.00 | 0.00 | 47 | 1013.9 |
| 20260508011446 | 12 | 287 | 1.6 | 3.2 | 0.00 | 0.00 | 0.00 | 47 | 1013.5 |
| 20260508010944 | 12 | 287 | 1.6 | 3.2 | 0.00 | 0.00 | 0.00 | 46 | 1013.5 |
| 20260508010903 | 12 | 288 | 1.6 | 3.2 | 0.00 | 0.00 | 0.00 | 46 | 1013.6 |
| 20260508010344 | 12 | 273 | 1.6 | 3.2 | 0.00 | 0.00 | 0.00 | 46 | 1013.5 |
| 20260508010039 | 12 | 288 | 0.0 | 3.2 | 0.00 | 0.00 | 0.00 | 46 | 1013.9 |
| 20260508005811 | 12 | 273 | 1.6 | 3.2 | 0.00 | 0.00 | 0.00 | 46 | 1013.5 |
| 20260508004828 | 13 | 273 | 1.6 | 6.4 | 0.00 | 0.00 | 0.00 | 44 | 1013.5 |
| 20260508004515 | 12 | 273 | 0.0 | 6.4 | 0.00 | 0.00 | 0.00 | 44 | 1013.8 |
| 20260508004328 | 13 | 273 | 0.0 | 6.4 | 0.00 | 0.00 | 0.00 | 44 | 1013.4 |
| 20260508004023 | 13 | 273 | 0.0 | 1.6 | 0.00 | 0.00 | 0.00 | 43 | 1013.3 |
| 20260508003243 | 13 | 273 | 0.0 | 1.6 | 0.00 | 0.00 | 0.00 | 42 | 1013.3 |
| 20260508003042 | 13 | 273 | 0.0 | 1.6 | 0.00 | 0.00 | 0.00 | 42 | 1013.7 |
| 20260508002740 | 13 | 273 | 0.0 | 1.6 | 0.00 | 0.00 | 0.00 | 42 | 1013.3 |
| 20260508002238 | 13 | 273 | 0.0 | 4.8 | 0.00 | 0.00 | 0.00 | 42 | 1013.3 |
| 20260508002002 | 14 | 273 | 1.6 | 4.8 | 0.00 | 0.00 | 0.00 | 40 | 1013.2 |
| 20260508001559 | 13 | 291 | 0.0 | 3.2 | 0.00 | 0.00 | 0.00 | 41 | 1013.6 |
| 20260508001226 | 14 | 287 | 1.6 | 6.4 | 0.00 | 0.00 | 0.00 | 41 | 1013.2 |
| 20260508000951 | 14 | 287 | 3.2 | 6.4 | 0.00 | 0.00 | 0.00 | 39 | 1013.3 |
| 20260508000208 | 14 | 287 | 3.2 | 11.3 | 0.00 | 0.00 | 0.00 | 39 | 1013.2 |
| 20260508000022 | 14 | 287 | 1.6 | 9.7 | 0.00 | 0.00 | 0.00 | 41 | 1013.6 |
| 20260507235643 | 15 | 287 | 3.2 | 11.3 | 0.00 | 0.00 | 0.00 | 39 | 1013.2 |
| 20260507235144 | 15 | 287 | 3.2 | 6.4 | 0.00 | 0.00 | 0.00 | 39 | 1013.2 |
| 20260507234622 | 15 | 286 | 3.2 | 12.9 | 0.00 | 0.00 | 0.00 | 39 | 1013.2 |
| 20260507234551 | 15 | 286 | 3.2 | 6.4 | 0.00 | 0.00 | 0.00 | 39 | 1013.5 |
| 20260507234106 | 15 | 163 | 3.2 | 12.9 | 0.00 | 0.00 | 0.00 | 39 | 1013.1 |
| 20260507233606 | 15 | 293 | 4.8 | 12.9 | 0.00 | 0.00 | 0.00 | 41 | 1013.1 |
| 20260507233106 | 15 | 164 | 4.8 | 12.9 | 0.00 | 0.00 | 0.00 | 38 | 1013.1 |
| 20260507233048 | 15 | 163 | 4.8 | 12.9 | 0.00 | 0.00 | 0.00 | 38 | 1013.5 |
| 20260507232825 | 15 | 210 | 3.2 | 11.3 | 0.00 | 0.00 | 0.00 | 39 | 1013.1 |
| 20260507232054 | 15 | 200 | 3.2 | 9.7 | 0.00 | 0.00 | 0.00 | 44 | 1013.1 |
| 20260507231553 | 15 | 147 | 1.6 | 6.4 | 0.00 | 0.00 | 0.00 | 38 | 1013.1 |
| 20260507231527 | 15 | 151 | 1.6 | 6.4 | 0.00 | 0.00 | 0.00 | 38 | 1013.4 |
| 20260507231035 | 15 | 127 | 3.2 | 9.7 | 0.00 | 0.00 | 0.00 | 38 | 1013.0 |
| 20260507230741 | 15 | 126 | 4.8 | 11.3 | 0.00 | 0.00 | 0.00 | 37 | 1013.1 |
| 20260507230056 | 15 | 188 | 4.8 | 11.3 | 0.00 | 0.00 | 0.00 | 38 | 1013.4 |
| 20260507230019 | 15 | 187 | 3.2 | 11.3 | 0.00 | 0.00 | 0.00 | 40 | 1013.1 |
| 20260507225523 | 15 | 205 | 3.2 | 14.5 | 0.00 | 0.00 | 0.00 | 38 | 1013.0 |
| 20260507225005 | 16 | 88 | 3.2 | 14.5 | 0.00 | 0.00 | 0.00 | 38 | 1013.1 |
| 20260507224557 | 15 | 205 | 3.2 | 9.7 | 0.00 | 0.00 | 0.00 | 36 | 1013.3 |
| 20260507224508 | 16 | 138 | 3.2 | 9.7 | 0.00 | 0.00 | 0.00 | 37 | 1013.0 |
| 20260507223939 | 16 | 143 | 3.2 | 8.0 | 0.00 | 0.00 | 0.00 | 42 | 1013.0 |
| 20260507223420 | 16 | 157 | 3.2 | 8.0 | 0.00 | 0.00 | 0.00 | 38 | 1013.0 |
| 20260507223059 | 16 | 230 | 1.6 | 8.0 | 0.00 | 0.00 | 0.00 | 37 | 1013.4 |
| 20260507222921 | 16 | 226 | 3.2 | 9.7 | 0.00 | 0.00 | 0.00 | 36 | 1013.0 |
| 20260507222422 | 16 | 207 | 3.2 | 4.8 | 0.00 | 0.00 | 0.00 | 37 | 1013.1 |
| 20260507222341 | 16 | 234 | 3.2 | 6.4 | 0.00 | 0.00 | 0.00 | 39 | 1013.1 |
| 20260507221523 | 15 | 236 | 1.6 | 8.0 | 0.00 | 0.00 | 0.00 | 38 | 1013.5 |
| 20260507221401 | 15 | 211 | 3.2 | 11.3 | 0.00 | 0.00 | 0.00 | 39 | 1013.2 |
| 20260507220902 | 15 | 206 | 4.8 | 14.5 | 0.00 | 0.00 | 0.00 | 39 | 1013.2 |
| 20260507220357 | 15 | 183 | 4.8 | 14.5 | 0.00 | 0.00 | 0.00 | 36 | 1013.2 |
| 20260507220043 | 15 | 278 | 6.4 | 14.5 | 0.00 | 0.00 | 0.00 | 36 | 1013.6 |
| 20260507215900 | 16 | 185 | 4.8 | 16.1 | 0.00 | 0.00 | 0.00 | 37 | 1013.3 |
| 20260507215355 | 15 | 194 | 4.8 | 16.1 | 0.00 | 0.00 | 0.00 | 41 | 1013.3 |
| 20260507214852 | 15 | 136 | 4.8 | 12.9 | 0.00 | 0.00 | 0.00 | 37 | 1013.3 |
| 20260507214530 | 15 | 211 | 1.6 | 12.9 | 0.00 | 0.00 | 0.00 | 36 | 1013.7 |
| 20260507214350 | 16 | 217 | 6.4 | 14.5 | 0.00 | 0.00 | 0.00 | 35 | 1013.3 |
| 20260507213826 | 16 | 190 | 6.4 | 14.5 | 0.00 | 0.00 | 0.00 | 39 | 1013.3 |
| 20260507213323 | 16 | 189 | 6.4 | 14.5 | 0.00 | 0.00 | 0.00 | 38 | 1013.3 |
| 20260507213033 | 16 | 181 | 6.4 | 24.1 | 0.00 | 0.00 | 0.00 | 38 | 1013.7 |
| 20260507212758 | 16 | 138 | 6.4 | 24.1 | 0.00 | 0.00 | 0.00 | 38 | 1013.4 |
| 20260507212256 | 16 | 211 | 4.8 | 9.7 | 0.00 | 0.00 | 0.00 | 39 | 1013.3 |
| 20260507211731 | 16 | 196 | 4.8 | 17.7 | 0.00 | 0.00 | 0.00 | 37 | 1013.3 |
| 20260507211555 | 16 | 172 | 4.8 | 17.7 | 0.00 | 0.00 | 0.00 | 36 | 1013.7 |
| 20260507211205 | 16 | 263 | 3.2 | 17.7 | 0.00 | 0.00 | 0.00 | 38 | 1013.4 |
| 20260507210639 | 16 | 246 | 3.2 | 12.9 | 0.00 | 0.00 | 0.00 | 37 | 1013.3 |
| 20260507210115 | 16 | 315 | 3.2 | 12.9 | 0.00 | 0.00 | 0.00 | 37 | 1013.2 |
| 20260507210054 | 16 | 322 | 3.2 | 12.9 | 0.00 | 0.00 | 0.00 | 38 | 1013.6 |
| 20260507205549 | 16 | 251 | 3.2 | 16.1 | 0.00 | 0.00 | 0.00 | 38 | 1013.2 |
| 20260507205024 | 16 | 215 | 6.4 | 16.1 | 0.00 | 0.00 | 0.00 | 39 | 1013.2 |
| 20260507204531 | 15 | 140 | 6.4 | 16.1 | 0.00 | 0.00 | 0.00 | 37 | 1013.6 |
| 20260507204456 | 16 | 198 | 8.0 | 19.3 | 0.00 | 0.00 | 0.00 | 37 | 1013.2 |
| 20260507204221 | 16 | 194 | 8.0 | 19.3 | 0.00 | 0.00 | 0.00 | 39 | 1013.2 |
| 20260507203931 | 16 | 209 | 6.4 | 16.1 | 0.00 | 0.00 | 0.00 | 40 | 1013.2 |
| 20260507203016 | 16 | 194 | 6.4 | 16.1 | 0.00 | 0.00 | 0.00 | 42 | 1013.5 |
| 20260507202944 | 16 | 126 | 4.8 | 16.1 | 0.00 | 0.00 | 0.00 | 42 | 1013.2 |
| 20260507202649 | 16 | 237 | 4.8 | 16.1 | 0.00 | 0.00 | 0.00 | 42 | 1013.1 |
| 20260507201912 | 16 | 198 | 6.4 | 16.1 | 0.00 | 0.00 | 0.00 | 37 | 1013.2 |
| 20260507201856 | 16 | 234 | 4.8 | 16.1 | 0.00 | 0.00 | 0.00 | 37 | 1013.2 |
| 20260507200846 | 16 | 242 | 4.8 | 12.9 | 0.00 | 0.00 | 0.00 | 39 | 1013.3 |
| 20260507200319 | 16 | 324 | 4.8 | 12.9 | 0.00 | 0.00 | 0.00 | 39 | 1013.2 |
| 20260507200053 | 15 | 317 | 1.6 | 12.9 | 0.00 | 0.00 | 0.00 | 41 | 1013.6 |
| 20260507195819 | 15 | 231 | 4.8 | 12.9 | 0.00 | 0.00 | 0.00 | 41 | 1013.3 |
| 20260507195251 | 16 | 159 | 6.4 | 12.9 | 0.00 | 0.00 | 0.00 | 44 | 1013.2 |
| 20260507194728 | 16 | 252 | 4.8 | 12.9 | 0.00 | 0.00 | 0.00 | 40 | 1013.3 |
| 20260507194546 | 16 | 284 | 6.4 | 12.9 | 0.00 | 0.00 | 0.00 | 39 | 1013.7 |
| 20260507194157 | 16 | 204 | 6.4 | 17.7 | 0.00 | 0.00 | 0.00 | 45 | 1013.4 |
| 20260507193653 | 15 | 192 | 6.4 | 17.7 | 0.00 | 0.00 | 0.00 | 38 | 1013.4 |
| 20260507193149 | 15 | 115 | 4.8 | 14.5 | 0.00 | 0.00 | 0.00 | 41 | 1013.6 |
| 20260507193028 | 15 | 113 | 3.2 | 9.7 | 0.00 | 0.00 | 0.00 | 41 | 1014.0 |
| 20260507192644 | 15 | 90 | 6.4 | 14.5 | 0.00 | 0.00 | 0.00 | 37 | 1013.5 |
| 20260507192116 | 16 | 124 | 4.8 | 14.5 | 0.00 | 0.00 | 0.00 | 39 | 1013.6 |
| 20260507191613 | 16 | 234 | 4.8 | 14.5 | 0.00 | 0.00 | 0.00 | 39 | 1013.5 |
| 20260507191543 | 15 | 234 | 3.2 | 14.5 | 0.00 | 0.00 | 0.00 | 39 | 1014.0 |
| 20260507191048 | 15 | 103 | 6.4 | 27.4 | 0.00 | 0.00 | 0.00 | 40 | 1013.5 |
| 20260507190521 | 15 | 255 | 6.4 | 27.4 | 0.00 | 0.00 | 0.00 | 37 | 1013.6 |
| 20260507190018 | 15 | 136 | 4.8 | 19.3 | 0.00 | 0.00 | 0.00 | 41 | 1013.5 |
| 20260507190006 | 15 | 101 | 4.8 | 14.5 | 0.00 | 0.00 | 0.00 | 41 | 1013.9 |
| 20260507185453 | 15 | 155 | 6.4 | 19.3 | 0.00 | 0.00 | 0.00 | 44 | 1013.6 |
| 20260507184923 | 15 | 200 | 8.0 | 19.3 | 0.00 | 0.00 | 0.00 | 44 | 1013.6 |
| 20260507184506 | 15 | 71 | 3.2 | 19.3 | 0.00 | 0.00 | 0.00 | 43 | 1014.1 |
| 20260507184422 | 15 | 150 | 8.0 | 19.3 | 0.00 | 0.00 | 0.00 | 41 | 1013.6 |
| 20260507183855 | 15 | 190 | 6.4 | 14.5 | 0.00 | 0.00 | 0.00 | 40 | 1013.5 |
| 20260507183327 | 15 | 203 | 6.4 | 19.3 | 0.00 | 0.00 | 0.00 | 43 | 1013.7 |
| 20260507183055 | 15 | 194 | 6.4 | 19.3 | 0.00 | 0.00 | 0.00 | 42 | 1013.9 |
| 20260507183020 | 15 | 165 | 6.4 | 19.3 | 0.00 | 0.00 | 0.00 | 45 | 1014.4 |
| 20260507182323 | 15 | 170 | 4.8 | 12.9 | 0.00 | 0.00 | 0.00 | 41 | 1013.9 |
| 20260507182021 | 15 | 206 | 6.4 | 14.5 | 0.00 | 0.00 | 0.00 | 41 | 1013.8 |
| 20260507181512 | 15 | 211 | 3.2 | 12.9 | 0.00 | 0.00 | 0.00 | 43 | 1014.3 |
| 20260507181231 | 15 | 155 | 4.8 | 14.5 | 0.00 | 0.00 | 0.00 | 43 | 1013.9 |
| 20260507180705 | 15 | 243 | 4.8 | 14.5 | 0.00 | 0.00 | 0.00 | 41 | 1013.8 |
| 20260507180139 | 15 | 23 | 6.4 | 12.9 | 0.00 | 0.00 | 0.00 | 42 | 1014.0 |
| 20260507180014 | 15 | 240 | 4.8 | 12.9 | 0.00 | 0.00 | 0.00 | 45 | 1014.4 |
| 20260507175635 | 15 | 167 | 4.8 | 12.9 | 0.00 | 0.00 | 0.00 | 44 | 1014.0 |
| 20260507175137 | 15 | 222 | 4.8 | 19.3 | 0.00 | 0.00 | 0.00 | 45 | 1014.1 |
| 20260507174827 | 14 | 184 | 6.4 | 19.3 | 0.00 | 0.00 | 0.00 | 45 | 1014.1 |
| 20260507174549 | 14 | 213 | 6.4 | 19.3 | 0.00 | 0.00 | 0.00 | 43 | 1014.1 |
| 20260507174540 | 14 | 140 | 3.2 | 19.3 | 0.00 | 0.00 | 0.00 | 45 | 1014.6 |
| 20260507173559 | 14 | 207 | 6.4 | 19.3 | 0.00 | 0.00 | 0.00 | 44 | 1014.2 |
| 20260507173053 | 13 | 199 | 9.7 | 19.3 | 0.00 | 0.00 | 0.00 | 43 | 1014.8 |
| 20260507173028 | 14 | 190 | 8.0 | 19.3 | 0.00 | 0.00 | 0.00 | 43 | 1014.3 |
| 20260507172528 | 14 | 26 | 6.4 | 14.5 | 0.00 | 0.00 | 0.00 | 41 | 1014.4 |
| 20260507172023 | 14 | 206 | 6.4 | 19.3 | 0.00 | 0.00 | 0.00 | 42 | 1014.4 |
| 20260507172002 | 13 | 283 | 6.4 | 19.3 | 0.00 | 0.00 | 0.00 | 41 | 1014.5 |
| 20260507171604 | 13 | 199 | 3.2 | 19.3 | 0.00 | 0.00 | 0.00 | 41 | 1015.0 |
| 20260507171010 | 14 | 181 | 6.4 | 16.1 | 0.00 | 0.00 | 0.00 | 44 | 1014.6 |
| 20260507170512 | 13 | 288 | 6.4 | 16.1 | 0.00 | 0.00 | 0.00 | 44 | 1014.7 |
| 20260507170000 | 13 | 286 | 6.4 | 19.3 | 0.00 | 0.00 | 0.00 | 43 | 1015.2 |
| 20260507165952 | 13 | 290 | 6.4 | 20.9 | 0.00 | 0.00 | 0.00 | 43 | 1014.7 |
| 20260507165452 | 13 | 287 | 8.0 | 22.5 | 0.00 | 0.00 | 0.00 | 47 | 1014.7 |
| 20260507164947 | 13 | 167 | 6.4 | 22.5 | 0.00 | 0.00 | 0.00 | 44 | 1014.8 |
| 20260507164502 | 13 | 118 | 3.2 | 12.9 | 0.00 | 0.00 | 0.00 | 46 | 1015.2 |
| 20260507164421 | 13 | 128 | 6.4 | 16.1 | 0.00 | 0.00 | 0.00 | 45 | 1014.7 |
| 20260507163913 | 13 | 209 | 6.4 | 27.4 | 0.00 | 0.00 | 0.00 | 47 | 1014.9 |
| 20260507163413 | 13 | 185 | 4.8 | 27.4 | 0.00 | 0.00 | 0.00 | 46 | 1014.9 |
| 20260507163010 | 13 | 324 | 3.2 | 12.9 | 0.00 | 0.00 | 0.00 | 44 | 1015.3 |
| 20260507162842 | 13 | 211 | 4.8 | 12.9 | 0.00 | 0.00 | 0.00 | 46 | 1014.9 |
| 20260507162342 | 13 | 53 | 6.4 | 17.7 | 0.00 | 0.00 | 0.00 | 51 | 1015.0 |
| 20260507162035 | 12 | 191 | 6.4 | 17.7 | 0.00 | 0.00 | 0.00 | 43 | 1015.0 |
| 20260507161501 | 12 | 151 | 8.0 | 17.7 | 0.00 | 0.00 | 0.00 | 42 | 1015.4 |
| 20260507161312 | 13 | 232 | 4.8 | 14.5 | 0.00 | 0.00 | 0.00 | 47 | 1015.0 |
| 20260507160743 | 13 | 253 | 4.8 | 14.5 | 0.00 | 0.00 | 0.00 | 45 | 1015.0 |
| 20260507160242 | 12 | 286 | 6.4 | 19.3 | 0.00 | 0.00 | 0.00 | 50 | 1014.9 |
| 20260507160103 | 12 | 289 | 4.8 | 19.3 | 0.00 | 0.00 | 0.00 | 45 | 1015.4 |
| 20260507155715 | 12 | 288 | 6.4 | 19.3 | 0.00 | 0.00 | 0.00 | 48 | 1015.0 |
| 20260507155214 | 12 | 288 | 6.4 | 17.7 | 0.00 | 0.00 | 0.00 | 45 | 1015.0 |
| 20260507154904 | 12 | 287 | 8.0 | 17.7 | 0.00 | 0.00 | 0.00 | 44 | 1015.0 |
| 20260507154551 | 12 | 288 | 8.0 | 17.7 | 0.00 | 0.00 | 0.00 | 45 | 1015.5 |
| 20260507154141 | 12 | 290 | 8.0 | 17.7 | 0.00 | 0.00 | 0.00 | 46 | 1015.0 |
| 20260507153901 | 12 | 289 | 6.4 | 20.9 | 0.00 | 0.00 | 0.00 | 46 | 1015.0 |
| 20260507153114 | 12 | 290 | 8.0 | 20.9 | 0.00 | 0.00 | 0.00 | 44 | 1015.0 |
| 20260507153050 | 11 | 290 | 9.7 | 20.9 | 0.00 | 0.00 | 0.00 | 44 | 1015.4 |
| 20260507152808 | 11 | 273 | 8.0 | 19.3 | 0.00 | 0.00 | 0.00 | 45 | 1014.9 |
| 20260507152030 | 11 | 286 | 8.0 | 19.3 | 0.00 | 0.00 | 0.00 | 46 | 1014.9 |
| 20260507151530 | 11 | 286 | 6.4 | 19.3 | 0.00 | 0.00 | 0.00 | 44 | 1014.9 |
| 20260507151502 | 11 | 287 | 8.0 | 19.3 | 0.00 | 0.00 | 0.00 | 44 | 1015.3 |
| 20260507151030 | 12 | 209 | 4.8 | 14.5 | 0.00 | 0.00 | 0.00 | 47 | 1014.8 |
| 20260507150531 | 12 | 130 | 6.4 | 14.5 | 0.00 | 0.00 | 0.00 | 47 | 1014.8 |
| 20260507150045 | 12 | 140 | 3.2 | 14.5 | 0.00 | 0.00 | 0.00 | 51 | 1015.2 |
| 20260507150007 | 12 | 138 | 4.8 | 14.5 | 0.00 | 0.00 | 0.00 | 51 | 1014.8 |
| 20260507145438 | 11 | 102 | 4.8 | 12.9 | 0.00 | 0.00 | 0.00 | 52 | 1014.7 |
| 20260507144933 | 11 | 161 | 6.4 | 12.9 | 0.00 | 0.00 | 0.00 | 48 | 1014.8 |
| 20260507144559 | 11 | 165 | 6.4 | 16.1 | 0.00 | 0.00 | 0.00 | 48 | 1015.3 |
| 20260507144429 | 11 | 215 | 6.4 | 16.1 | 0.00 | 0.00 | 0.00 | 48 | 1014.9 |
| 20260507143928 | 11 | 241 | 4.8 | 11.3 | 0.00 | 0.00 | 0.00 | 48 | 1014.8 |
| 20260507143424 | 11 | 155 | 4.8 | 11.3 | 0.00 | 0.00 | 0.00 | 51 | 1014.9 |
| 20260507143140 | 11 | 123 | 3.2 | 11.3 | 0.00 | 0.00 | 0.00 | 52 | 1014.9 |
| 20260507143002 | 11 | 268 | 3.2 | 9.7 | 0.00 | 0.00 | 0.00 | 51 | 1015.3 |
| 20260507142356 | 11 | 182 | 4.8 | 12.9 | 0.00 | 0.00 | 0.00 | 48 | 1014.9 |
| 20260507141851 | 11 | 296 | 4.8 | 12.9 | 0.00 | 0.00 | 0.00 | 47 | 1014.9 |
| 20260507141538 | 11 | 203 | 3.2 | 12.9 | 0.00 | 0.00 | 0.00 | 50 | 1015.4 |
| 20260507141350 | 11 | 142 | 4.8 | 14.5 | 0.00 | 0.00 | 0.00 | 51 | 1014.9 |
| 20260507140845 | 11 | 255 | 4.8 | 14.5 | 0.00 | 0.00 | 0.00 | 50 | 1014.9 |
| 20260507140344 | 10 | 259 | 6.4 | 19.3 | 0.00 | 0.00 | 0.00 | 48 | 1014.9 |
| 20260507140108 | 10 | 242 | 3.2 | 17.7 | 0.00 | 0.00 | 0.00 | 50 | 1015.4 |
| 20260507135830 | 10 | 188 | 6.4 | 19.3 | 0.00 | 0.00 | 0.00 | 53 | 1014.9 |
| 20260507135333 | 11 | 210 | 4.8 | 14.5 | 0.00 | 0.00 | 0.00 | 49 | 1014.9 |
| 20260507134807 | 11 | 234 | 3.2 | 9.7 | 0.00 | 0.00 | 0.00 | 56 | 1014.9 |
| 20260507134604 | 10 | 237 | 1.6 | 9.7 | 0.00 | 0.00 | 0.00 | 50 | 1015.3 |
| 20260507134303 | 10 | 203 | 3.2 | 9.7 | 0.00 | 0.00 | 0.00 | 53 | 1014.9 |
| 20260507133953 | 10 | 211 | 3.2 | 11.3 | 0.00 | 0.00 | 0.00 | 55 | 1014.8 |
| 20260507133233 | 10 | 253 | 3.2 | 11.3 | 0.00 | 0.00 | 0.00 | 56 | 1014.8 |
| 20260507133007 | 10 | 222 | 3.2 | 11.3 | 0.00 | 0.00 | 0.00 | 54 | 1015.3 |
| 20260507133002 | 10 | 219 | 4.8 | 11.3 | 0.00 | 0.00 | 0.00 | 55 | 1014.8 |
| 20260507132229 | 10 | 192 | 4.8 | 12.9 | 0.00 | 0.00 | 0.00 | 56 | 1014.9 |
| 20260507131722 | 9 | 159 | 4.8 | 12.9 | 0.00 | 0.00 | 0.00 | 56 | 1014.9 |
| 20260507131521 | 9 | 22 | 3.2 | 12.9 | 0.00 | 0.00 | 0.00 | 58 | 1015.4 |
| 20260507131222 | 9 | 197 | 4.8 | 11.3 | 0.00 | 0.00 | 0.00 | 58 | 1015.0 |
| 20260507130717 | 9 | 231 | 3.2 | 12.9 | 0.00 | 0.00 | 0.00 | 63 | 1014.9 |
| 20260507130217 | 8 | 49 | 3.2 | 12.9 | 0.00 | 0.00 | 0.00 | 65 | 1014.9 |
| 20260507130046 | 8 | 201 | 1.6 | 11.3 | 0.00 | 0.00 | 0.00 | 69 | 1015.3 |
| 20260507125936 | 8 | 178 | 3.2 | 11.3 | 0.00 | 0.00 | 0.00 | 68 | 1014.8 |
| 20260507125210 | 8 | 219 | 3.2 | 11.3 | 0.00 | 0.00 | 0.00 | 68 | 1014.8 |
| 20260507124644 | 8 | 145 | 1.6 | 6.4 | 0.00 | 0.00 | 0.00 | 74 | 1014.8 |
| 20260507124509 | 7 | 146 | 1.6 | 6.4 | 0.00 | 0.00 | 0.00 | 74 | 1015.3 |
| 20260507124119 | 7 | 146 | 1.6 | 6.4 | 0.00 | 0.00 | 0.00 | 73 | 1014.9 |
| 20260507123556 | 7 | 140 | 1.6 | 8.0 | 0.00 | 0.00 | 0.00 | 75 | 1015.0 |
| 20260507123029 | 7 | 273 | 1.6 | 8.0 | 0.00 | 0.00 | 0.00 | 77 | 1014.9 |
| 20260507123014 | 7 | 273 | 1.6 | 8.0 | 0.00 | 0.00 | 0.00 | 77 | 1015.4 |
| 20260507122501 | 6 | 273 | 1.6 | 6.4 | 0.00 | 0.00 | 0.00 | 79 | 1015.0 |
| 20260507121936 | 6 | 273 | 0.0 | 6.4 | 0.00 | 0.00 | 0.00 | 82 | 1015.0 |
| 20260507121602 | 6 | 288 | 0.0 | 4.8 | 0.00 | 0.00 | 0.00 | 83 | 1015.5 |
| 20260507121409 | 6 | 291 | 0.0 | 4.8 | 0.00 | 0.00 | 0.00 | 83 | 1015.0 |
| 20260507121104 | 6 | 287 | 0.0 | 4.8 | 0.00 | 0.00 | 0.00 | 85 | 1015.0 |
| 20260507121051 | 5 | 287 | 1.6 | 4.8 | 0.00 | 0.00 | 0.00 | 85 | 1014.9 |
| 20260507121002 | 5 | 287 | 0.0 | 3.2 | 0.00 | 0.00 | 0.00 | 86 | 1014.8 |
| 20260507080750 | 6 | 287 | 0.0 | 1.6 | 0.00 | 0.00 | 0.00 | 89 | 1013.8 |
| 20260507080226 | 6 | 287 | 0.0 | 4.8 | 0.00 | 0.00 | 0.00 | 89 | 1013.7 |
| 20260507075720 | 6 | 287 | 0.0 | 4.8 | 0.00 | 0.00 | 0.00 | 89 | 1013.7 |
| 20260507075218 | 6 | 287 | 0.0 | 3.2 | 0.00 | 0.03 | 0.00 | 89 | 1013.7 |
| 20260507074713 | 6 | 287 | 0.0 | 1.6 | 0.00 | 0.03 | 0.00 | 90 | 1013.7 |
| 20260507074525 | 6 | 287 | 0.0 | 0.0 | 0.00 | 0.20 | 0.00 | 90 | 1014.1 |
| 20260507074212 | 6 | 287 | 0.0 | 0.0 | 0.00 | 0.05 | 0.00 | 90 | 1013.7 |
| 20260507073708 | 6 | 287 | 0.0 | 0.0 | 0.00 | 0.08 | 0.00 | 90 | 1013.7 |
| 20260507073206 | 6 | 287 | 0.0 | 0.0 | 0.00 | 0.10 | 0.00 | 90 | 1013.7 |
| 20260507073026 | 6 | 287 | 0.0 | 0.0 | 0.00 | 0.20 | 0.00 | 91 | 1014.1 |
| 20260507072639 | 6 | 287 | 0.0 | 1.6 | 0.00 | 0.10 | 0.00 | 91 | 1013.7 |
| 20260507072140 | 6 | 287 | 0.0 | 1.6 | 0.00 | 0.10 | 0.00 | 91 | 1013.7 |
| 20260507071831 | 6 | 287 | 0.0 | 4.8 | 0.00 | 0.13 | 0.00 | 91 | 1013.7 |
| 20260507071616 | 6 | 287 | 0.0 | 4.8 | 0.00 | 0.20 | 0.00 | 91 | 1014.1 |
| 20260507071107 | 6 | 288 | 0.0 | 4.8 | 0.00 | 0.13 | 0.00 | 91 | 1013.7 |
| 20260507070604 | 6 | 287 | 0.0 | 3.2 | 0.00 | 0.15 | 0.00 | 91 | 1013.7 |
| 20260507070037 | 6 | 287 | 0.0 | 1.6 | 0.00 | 0.20 | 0.00 | 90 | 1013.7 |
| 20260507070011 | 6 | 287 | 0.0 | 1.6 | 0.00 | 0.33 | 0.00 | 90 | 1014.1 |
| 20260507065510 | 6 | 287 | 0.0 | 3.2 | 0.00 | 0.23 | 0.00 | 90 | 1013.7 |
| 20260507064944 | 7 | 287 | 0.0 | 3.2 | 0.00 | 0.25 | 0.00 | 90 | 1013.8 |
| 20260507064647 | 7 | 288 | 0.0 | 1.6 | 0.00 | 0.28 | 0.00 | 90 | 1013.8 |
| 20260507064600 | 6 | 287 | 0.0 | 1.6 | 0.00 | 0.33 | 0.00 | 90 | 1014.2 |
| 20260507063914 | 7 | 287 | 0.0 | 3.2 | 0.00 | 0.28 | 0.00 | 90 | 1013.9 |
| 20260507063412 | 7 | 287 | 0.0 | 1.6 | 0.00 | 0.28 | 0.00 | 90 | 1013.9 |
| 20260507063013 | 7 | 287 | 0.0 | 4.8 | 0.00 | 0.33 | 0.00 | 90 | 1014.3 |
| 20260507062844 | 7 | 288 | 0.0 | 4.8 | 0.00 | 0.28 | 0.00 | 90 | 1013.9 |
| 20260507062342 | 7 | 288 | 0.0 | 3.2 | 0.00 | 0.28 | 0.00 | 89 | 1013.9 |
| 20260507061814 | 7 | 287 | 0.0 | 1.6 | 0.00 | 0.28 | 0.00 | 89 | 1013.9 |
| 20260507061539 | 7 | 287 | 0.0 | 1.6 | 0.00 | 0.33 | 0.00 | 89 | 1014.2 |
| 20260507061512 | 7 | 287 | 0.0 | 1.6 | 0.00 | 0.30 | 0.00 | 89 | 1013.8 |
| 20260507060950 | 7 | 287 | 0.0 | 1.6 | 0.00 | 0.33 | 0.00 | 89 | 1013.8 |
| 20260507060156 | 7 | 287 | 0.0 | 1.6 | 0.00 | 0.33 | 0.00 | 89 | 1013.8 |
| 20260507060031 | 7 | 287 | 0.0 | 1.6 | 0.00 | 0.33 | 0.00 | 89 | 1014.2 |
| 20260507055631 | 7 | 287 | 0.0 | 1.6 | 0.00 | 0.36 | 0.00 | 88 | 1013.9 |
| 20260507055106 | 7 | 287 | 1.6 | 3.2 | 0.00 | 0.38 | 0.00 | 88 | 1013.9 |
| 20260507054538 | 7 | 287 | 1.6 | 3.2 | 0.00 | 0.38 | 0.00 | 88 | 1014.0 |
| 20260507054516 | 7 | 287 | 0.0 | 3.2 | 0.00 | 0.61 | 0.00 | 88 | 1014.4 |
| 20260507054011 | 7 | 288 | 0.0 | 3.2 | 0.00 | 0.38 | 0.00 | 88 | 1014.0 |
| 20260507053510 | 7 | 287 | 0.0 | 3.2 | 0.00 | 0.41 | 0.00 | 87 | 1014.0 |
| 20260507053048 | 7 | 287 | 0.0 | 3.2 | 0.00 | 0.61 | 0.00 | 87 | 1014.4 |
| 20260507053006 | 7 | 287 | 0.0 | 1.6 | 0.00 | 0.43 | 0.00 | 86 | 1014.0 |
| 20260507052437 | 8 | 287 | 0.0 | 3.2 | 0.00 | 0.43 | 0.00 | 86 | 1013.9 |
| 20260507051936 | 8 | 287 | 0.0 | 3.2 | 0.00 | 0.46 | 0.00 | 85 | 1013.8 |
| 20260507051548 | 8 | 287 | 0.0 | 3.2 | 0.00 | 0.61 | 0.00 | 85 | 1014.3 |
| 20260507051409 | 8 | 287 | 0.0 | 3.2 | 0.00 | 0.48 | 0.00 | 85 | 1013.9 |
| 20260507050906 | 8 | 287 | 0.0 | 3.2 | 0.00 | 0.53 | 0.00 | 84 | 1014.0 |
| 20260507050406 | 8 | 287 | 1.6 | 4.8 | 0.00 | 0.58 | 0.00 | 83 | 1014.1 |
| 20260507050119 | 8 | 287 | 1.6 | 4.8 | 0.00 | 0.61 | 0.00 | 82 | 1014.2 |
| 20260507050025 | 8 | 287 | 0.0 | 4.8 | 0.00 | 0.61 | 0.00 | 82 | 1014.6 |
| 20260507045356 | 8 | 288 | 1.6 | 4.8 | 0.00 | 0.66 | 0.00 | 81 | 1014.1 |
| 20260507044830 | 9 | 288 | 1.6 | 4.8 | 0.00 | 0.71 | 0.00 | 81 | 1014.2 |
| 20260507044540 | 8 | 288 | 0.0 | 4.8 | 0.00 | 1.07 | 0.00 | 80 | 1014.6 |
| 20260507044301 | 9 | 288 | 1.6 | 4.8 | 0.00 | 0.79 | 0.00 | 80 | 1014.2 |
| 20260507043800 | 9 | 288 | 1.6 | 4.8 | 0.00 | 0.79 | 0.00 | 79 | 1014.1 |
| 20260507043234 | 9 | 288 | 1.6 | 4.8 | 0.00 | 0.81 | 0.00 | 78 | 1014.0 |
| 20260507043035 | 9 | 287 | 0.0 | 4.8 | 0.00 | 1.07 | 0.00 | 78 | 1014.3 |
| 20260507042731 | 10 | 287 | 1.6 | 6.4 | 0.00 | 0.81 | 0.00 | 77 | 1013.9 |
| 20260507042226 | 10 | 287 | 1.6 | 6.4 | 0.00 | 0.86 | 0.00 | 77 | 1013.9 |
| 20260507041722 | 10 | 287 | 1.6 | 4.8 | 0.00 | 0.86 | 0.00 | 77 | 1014.0 |
| 20260507041509 | 10 | 287 | 1.6 | 4.8 | 0.00 | 1.07 | 0.00 | 77 | 1014.4 |
| 20260507041216 | 10 | 287 | 1.6 | 4.8 | 0.00 | 0.91 | 0.00 | 76 | 1014.0 |
| 20260507040652 | 10 | 287 | 1.6 | 4.8 | 0.00 | 0.99 | 0.00 | 76 | 1014.0 |
| 20260507040125 | 10 | 287 | 1.6 | 4.8 | 0.00 | 1.07 | 0.00 | 75 | 1013.9 |
| 20260507040008 | 10 | 287 | 1.6 | 4.8 | 0.00 | 1.17 | 1.07 | 75 | 1014.3 |
| 20260507035558 | 10 | 287 | 1.6 | 3.2 | 0.00 | 1.09 | 1.07 | 74 | 1013.9 |
| 20260507035032 | 10 | 287 | 0.0 | 3.2 | 0.00 | 1.12 | 1.07 | 73 | 1013.9 |
| 20260507034522 | 10 | 287 | 0.0 | 3.2 | 0.00 | 1.17 | 1.07 | 72 | 1014.3 |
| 20260507034505 | 10 | 287 | 1.6 | 3.2 | 0.00 | 1.12 | 1.07 | 72 | 1014.0 |
| 20260507034002 | 10 | 287 | 1.6 | 3.2 | 0.00 | 1.14 | 1.07 | 72 | 1014.0 |
| 20260507033457 | 10 | 287 | 1.6 | 3.2 | 0.00 | 1.14 | 1.07 | 71 | 1014.0 |
| 20260507033213 | 10 | 288 | 0.0 | 3.2 | 0.00 | 1.14 | 1.07 | 71 | 1013.9 |
| 20260507033039 | 10 | 288 | 0.0 | 3.2 | 0.00 | 1.17 | 1.07 | 71 | 1014.3 |
| 20260507032429 | 10 | 288 | 0.0 | 1.6 | 0.00 | 1.14 | 1.07 | 71 | 1013.9 |
| 20260507031928 | 10 | 289 | 0.0 | 1.6 | 0.00 | 1.14 | 1.07 | 71 | 1014.0 |
| 20260507031526 | 9 | 288 | 0.0 | 0.0 | 0.00 | 1.17 | 1.07 | 70 | 1014.3 |
| 20260507031359 | 10 | 288 | 0.0 | 1.6 | 0.00 | 1.14 | 1.07 | 70 | 1014.0 |
| 20260507030857 | 10 | 288 | 0.0 | 1.6 | 0.00 | 1.14 | 1.07 | 70 | 1014.0 |
| 20260507030330 | 10 | 288 | 0.0 | 0.0 | 0.00 | 1.14 | 1.07 | 70 | 1014.0 |
| 20260507030040 | 10 | 288 | 0.0 | 0.0 | 0.00 | 1.17 | 1.07 | 69 | 1014.4 |
| 20260507025817 | 10 | 288 | 0.0 | 0.0 | 0.00 | 1.17 | 1.07 | 69 | 1014.1 |
| 20260507025545 | 10 | 288 | 0.0 | 0.0 | 0.00 | 1.17 | 1.07 | 69 | 1014.1 |
| 20260507024754 | 10 | 288 | 0.0 | 0.0 | 0.00 | 1.19 | 1.07 | 68 | 1014.1 |
| 20260507024554 | 10 | 288 | 0.0 | 0.0 | 0.00 | 1.35 | 1.07 | 67 | 1014.4 |
| 20260507024255 | 10 | 288 | 0.0 | 0.0 | 0.00 | 1.19 | 1.07 | 67 | 1014.0 |
| 20260507024202 | 10 | 287 | 0.0 | 0.0 | 0.00 | 1.22 | 1.07 | 67 | 1014.0 |
| 20260507023229 | 10 | 287 | 0.0 | 1.6 | 0.00 | 1.24 | 1.07 | 67 | 1014.0 |
| 20260507023047 | 10 | 287 | 0.0 | 1.6 | 0.00 | 1.35 | 1.07 | 67 | 1014.3 |
| 20260507022702 | 10 | 287 | 0.0 | 1.6 | 0.00 | 1.27 | 1.07 | 66 | 1014.0 |
| 20260507022200 | 10 | 287 | 0.0 | 1.6 | 0.00 | 1.30 | 1.07 | 66 | 1014.0 |
| 20260507021658 | 10 | 287 | 0.0 | 0.0 | 0.00 | 1.30 | 1.07 | 66 | 1014.0 |
| 20260507021605 | 10 | 287 | 0.0 | 0.0 | 0.00 | 1.35 | 1.07 | 66 | 1014.3 |
| 20260507021156 | 10 | 287 | 0.0 | 1.6 | 0.00 | 1.30 | 1.07 | 66 | 1013.9 |
| 20260507020636 | 10 | 287 | 0.0 | 1.6 | 0.00 | 1.32 | 1.07 | 67 | 1013.8 |
| 20260507020111 | 10 | 287 | 0.0 | 0.0 | 0.00 | 1.32 | 1.07 | 67 | 1013.8 |
| 20260507020021 | 10 | 287 | 0.0 | 0.0 | 0.00 | 1.35 | 1.07 | 67 | 1014.1 |
| 20260507015612 | 10 | 287 | 0.0 | 1.6 | 0.00 | 1.37 | 1.07 | 67 | 1013.7 |
| 20260507015052 | 10 | 287 | 0.0 | 1.6 | 0.00 | 1.40 | 1.07 | 67 | 1013.7 |
| 20260507014552 | 10 | 287 | 0.0 | 1.6 | 0.00 | 1.42 | 1.07 | 67 | 1013.7 |
| 20260507014522 | 10 | 287 | 0.0 | 1.6 | 0.00 | 1.52 | 1.07 | 67 | 1014.0 |
| 20260507014032 | 10 | 287 | 0.0 | 1.6 | 0.00 | 1.42 | 1.07 | 67 | 1013.6 |
| 20260507013534 | 10 | 287 | 0.0 | 1.6 | 0.00 | 1.42 | 1.07 | 68 | 1013.5 |
| 20260507013231 | 10 | 287 | 0.0 | 0.0 | 0.00 | 1.42 | 1.07 | 67 | 1013.5 |
| 20260507013049 | 10 | 287 | 0.0 | 0.0 | 0.00 | 1.52 | 1.07 | 67 | 1013.7 |